Date String (YYYY-MM-DD hh:mm:ss) UTC,Instrument flags,Ambient pressure (hPa),Sample flow (lpm),Bypass flow (lpm),Sample temperature (°C),Ambient temperature (°C),ASC tube jacket temperature (°C),LED temperature (°C),Box temperature (°C),Sample RH (%),Span deviation,Mass concentration (μg/m³),Mass concentration (μg/m³),Mass concentration (μg/m³)
DateTimeUTC,F1_M11,P_M11,Q1_M11,Q2_M11,T1_M11,T2_M11,T3_M11,T4_M11,T5_M11,U1_M11,ZSPAN_M11,X2_M11,X0_M11,X1_M11
2022-12-05 20:00:00,,0817.2,4.99,0.00,23.6,22.3,00.0,32.4,25.5,17.9,0000.0,0004.36,0009.55,0003.91
2022-12-05 20:01:00,,0816.9,4.99,0.00,23.5,22.2,00.0,32.4,25.4,17.8,0000.0,0004.40,0010.12,0003.93
2022-12-05 20:02:00,,0817.2,5.00,0.00,23.5,22.1,00.0,32.4,25.3,17.8,0000.0,0004.40,0010.66,0003.92
2022-12-05 20:03:00,,0816.8,5.01,0.00,23.5,22.0,00.0,32.4,25.3,17.8,0000.0,0004.44,0010.83,0003.93
2022-12-05 20:04:00,,0816.8,5.01,0.00,23.5,22.0,00.0,32.4,25.3,17.8,0000.0,0004.43,0010.74,0003.93
2022-12-05 20:05:00,,0817.2,4.99,0.00,23.5,22.0,00.0,32.4,25.3,17.7,0000.0,0004.40,0010.48,0003.94
2022-12-05 20:06:00,,0816.9,4.99,0.00,23.5,22.0,00.0,32.4,25.2,17.7,0000.0,0004.40,0010.63,0003.93
2022-12-05 20:07:00,,0816.8,5.00,0.00,23.4,22.0,00.0,32.4,25.3,17.9,0000.0,0004.40,0011.61,0003.92
2022-12-05 20:08:00,,0816.9,5.01,0.00,23.5,22.1,00.0,32.4,25.3,17.8,0000.0,0004.40,0011.91,0003.93
2022-12-05 20:09:00,,0816.8,5.01,0.00,23.5,22.1,00.0,32.4,25.3,17.9,0000.0,0004.41,0012.80,0003.93
2022-12-05 20:10:00,,0816.8,5.01,0.00,23.5,22.1,00.0,32.4,25.3,17.9,0000.0,0004.40,0012.77,0003.92
2022-12-05 20:11:00,,0816.8,5.00,0.00,23.5,22.1,00.0,32.4,25.3,17.6,0000.0,0004.40,0012.72,0003.92
2022-12-05 20:12:00,,0816.9,4.99,0.00,23.5,22.1,00.0,32.4,25.3,17.5,0000.0,0004.39,0012.77,0003.92
2022-12-05 20:13:00,,0816.8,4.99,0.00,23.5,22.1,00.0,32.4,25.3,17.8,0000.0,0004.41,0011.99,0003.92
2022-12-05 20:14:00,,0816.8,4.99,0.00,23.5,22.0,00.0,32.4,25.3,17.3,0000.0,0004.39,0011.73,0003.90
2022-12-05 20:15:00,,0816.9,5.00,0.00,23.4,22.1,00.0,32.4,25.3,17.3,0000.0,0004.38,0012.12,0003.90
2022-12-05 20:16:00,,0816.8,5.01,0.00,23.5,22.2,00.0,32.4,25.3,17.5,0000.0,0004.38,0012.38,0003.88
2022-12-05 20:17:00,,0816.8,5.01,0.00,23.5,22.2,00.0,32.4,25.3,17.7,0000.0,0004.40,0012.81,0003.86
2022-12-05 20:18:00,,0816.7,5.01,0.00,23.5,22.3,00.0,32.4,25.3,17.4,0000.0,0004.36,0011.08,0003.84
2022-12-05 20:19:00,,0817.3,5.00,0.00,23.5,22.3,00.0,32.4,25.3,17.4,0000.0,0004.28,0010.86,0003.80
2022-12-05 20:20:00,,0817.0,5.00,0.00,23.5,22.3,00.0,32.4,25.4,17.6,0000.0,0004.25,0010.55,0003.78
2022-12-05 20:21:00,,0817.0,4.99,0.00,23.5,22.3,00.0,32.4,25.4,17.5,0000.0,0004.24,0010.58,0003.75
2022-12-05 20:22:00,,0817.1,4.99,0.00,23.5,22.3,00.0,32.4,25.4,17.5,0000.0,0004.22,0010.30,0003.73
2022-12-05 20:23:00,,0816.9,5.00,0.00,23.5,22.3,00.0,32.4,25.4,16.9,0000.0,0004.18,0009.53,0003.69
2022-12-05 20:24:00,,0817.0,5.00,0.00,23.5,22.4,00.0,32.4,25.5,17.0,0000.0,0004.14,0009.47,0003.66
2022-12-05 20:25:00,,0817.0,5.00,0.00,23.5,22.4,00.0,32.4,25.5,17.2,0000.0,0004.10,0009.42,0003.64
2022-12-05 20:26:00,,0816.8,5.00,0.00,23.5,22.3,00.0,32.4,25.4,17.0,0000.0,0004.07,0008.95,0003.61
2022-12-05 20:27:00,,0816.8,5.01,0.00,23.6,22.4,00.0,32.4,25.5,17.3,0000.0,0004.06,0008.72,0003.59
2022-12-05 20:28:00,,0816.9,5.00,0.00,23.6,22.4,00.0,32.4,25.5,17.4,0000.0,0004.01,0008.22,0003.56
2022-12-05 20:29:00,,0816.9,5.00,0.00,23.6,22.4,00.0,32.4,25.5,17.0,0000.0,0003.99,0008.12,0003.54
2022-12-05 20:30:00,,0817.1,5.00,0.00,23.6,22.4,00.0,32.4,25.5,16.8,0000.0,0003.98,0007.75,0003.50
2022-12-05 20:31:00,,0816.7,5.00,0.00,23.6,22.5,00.0,32.4,25.5,16.7,0000.0,0003.91,0007.61,0003.44
2022-12-05 20:32:00,,0816.7,5.00,0.00,23.6,22.5,00.0,32.4,25.5,17.0,0000.0,0003.85,0007.97,0003.39
2022-12-05 20:33:00,,0816.7,5.00,0.00,23.6,22.6,00.0,32.5,25.5,17.2,0000.0,0003.82,0008.42,0003.37
2022-12-05 20:34:00,,0816.6,5.00,0.00,23.7,22.6,00.0,32.5,25.5,17.4,0000.0,0003.83,0009.14,0003.36
2022-12-05 20:35:00,,0816.6,5.00,0.00,23.7,22.7,00.0,32.5,25.6,17.3,0000.0,0003.82,0009.96,0003.35
2022-12-05 20:36:00,,0816.6,5.00,0.00,23.7,22.7,00.0,32.5,25.6,16.9,0000.0,0003.80,0010.04,0003.32
2022-12-05 20:37:00,,0817.0,5.00,0.00,23.7,22.7,00.0,32.5,25.6,16.6,0000.0,0003.76,0009.96,0003.29
2022-12-05 20:38:00,,0817.1,5.00,0.00,23.7,22.7,00.0,32.5,25.6,16.5,0000.0,0003.71,0010.33,0003.25
2022-12-05 20:39:00,,0817.2,5.00,0.00,23.8,22.8,00.0,32.5,25.7,16.8,0000.0,0003.69,0010.56,0003.22
2022-12-05 20:40:00,,0817.1,5.00,0.00,23.8,22.8,00.0,32.6,25.7,16.6,0000.0,0003.67,0010.69,0003.19
2022-12-05 20:41:00,,0817.0,5.00,0.00,23.8,22.8,00.0,32.6,25.7,16.8,0000.0,0003.62,0011.13,0003.19
2022-12-05 20:42:00,,0817.3,5.00,0.00,23.8,22.8,00.0,32.6,25.7,16.6,0000.0,0003.64,0011.46,0003.19
2022-12-05 20:43:00,,0817.0,5.00,0.00,23.8,22.8,00.0,32.6,25.8,16.0,0000.0,0003.64,0011.50,0003.18
2022-12-05 20:44:00,,0817.2,5.00,0.00,23.9,22.8,00.0,32.6,25.8,16.5,0000.0,0003.61,0011.36,0003.15
2022-12-05 20:45:00,,0816.9,5.00,0.00,23.9,22.9,00.0,32.6,25.9,16.2,0000.0,0003.53,0010.61,0003.11
2022-12-05 20:46:00,,0816.9,5.00,0.00,23.9,22.9,00.0,32.7,25.9,16.3,0000.0,0003.47,0009.55,0003.04
2022-12-05 20:47:00,,0816.9,5.00,0.00,23.9,22.9,00.0,32.7,25.9,16.1,0000.0,0003.43,0009.32,0002.97
2022-12-05 20:48:00,,0816.8,5.00,0.00,23.9,23.0,00.0,32.7,25.9,16.9,0000.0,0003.43,0009.72,0002.96
2022-12-05 20:49:00,,0816.8,5.00,0.00,24.0,23.0,00.0,32.7,25.9,16.6,0000.0,0003.45,0009.73,0002.97
2022-12-05 20:50:00,,0816.9,4.99,0.00,24.0,23.1,00.0,32.7,26.0,16.3,0000.0,0003.45,0009.69,0002.97
2022-12-05 20:51:00,,0817.0,5.00,0.00,24.0,23.1,00.0,32.8,26.0,16.3,0000.0,0003.47,0010.72,0002.95
2022-12-05 20:52:00,,0817.1,5.00,0.00,24.0,23.1,00.0,32.8,26.0,16.3,0000.0,0003.49,0010.32,0002.92
2022-12-05 20:53:00,,0817.0,5.01,0.00,24.1,23.2,00.0,32.8,26.0,15.8,0000.0,0003.44,0009.60,0002.87
2022-12-05 20:54:00,,0816.8,5.00,0.00,24.1,23.2,00.0,32.8,26.1,15.3,0000.0,0003.40,0009.17,0002.80
2022-12-05 20:55:00,,0816.8,5.01,0.00,24.1,23.2,00.0,32.9,26.1,15.4,0000.0,0003.34,0008.46,0002.74
2022-12-05 20:56:00,,0816.8,5.00,0.00,24.1,23.3,00.0,32.9,26.1,15.2,0000.0,0003.31,0008.34,0002.67
2022-12-05 20:57:00,,0816.9,5.00,0.00,24.2,23.3,00.0,32.9,26.1,15.3,0000.0,0003.29,0008.32,0002.61
2022-12-05 20:58:00,,0816.9,5.00,0.00,24.2,23.3,00.0,32.9,26.1,15.5,0000.0,0003.26,0008.35,0002.56
2022-12-05 20:59:00,,0816.8,4.98,0.00,24.2,23.4,00.0,33.0,26.2,16.1,0000.0,0003.21,0007.84,0002.50
